Weather History for KGCN - July, 2013

Change the Weather History Date:

Sunday, July 7, 2013

  Actual Average Record
Temperature  
Mean Temperature 67 °F -  
Max Temperature 86 °F 83 °F 97 °F (1989)
Min Temperature 48 °F 45 °F 30 °F (2005)
Cooling Degree Days 2    
Growing Degree Days 17 (Base 50)    
Moisture  
Dew Point 46 °F    
Average Humidity 50    
Maximum Humidity 90    
Minimum Humidity 20    
Precipitation  
Precipitation 0.00 in - - ()
Sea Level Pressure  
Sea Level Pressure 29.90 in    
Wind  
Wind Speed 3 mph (WNW)    
Max Wind Speed 12 mph    
Max Gust Speed 23 mph    
Visibility 10 miles    
Events Rain    
Averages and records for this station are not official NWS values.
T = Trace of Precipitation, MM = Missing Value Source: NWS Daily Summary

Daily Weather History Graph

Daily Weather History Graph

Search for Another Location

Airport or City:

Trip Planner

Search our weather history database for the weather conditions in past years. The results will help you decide how hot, cold, wet, or windy it might be!

Date:

Astronomy

Jul. 07, 2013 Rise Set
Actual Time 5:18 AM MST 7:48 PM MST
Civil Twilight 4:49 AM MST 8:17 PM MST
Nautical Twilight 4:12 AM MST 8:54 PM MST
Astronomical Twilight 3:31 AM MST 9:35 PM MST
Moon 4:56 AM MST (7/7) 7:17 PM MST (7/7)
Length of Visible Light 15h 28m
Length of Day
14h 29m
Waning Crescent, 0% of the Moon is Illuminated
Jul 7
Waning Crescent
Jul 8
New
Jul 15
First Quarter
Jul 22
Full
Jul 29
Last Quarter

Hourly Weather History & Observations

Time (MST) Temp. Dew Point Humidity Pressure Visibility Wind Dir Wind Speed Gust Speed Precip Events Conditions
12:54 AM 52.0 °F 48.0 °F 86% 29.90 in 10.0 mi NE 3.5 mph - N/A   Clear
1:54 AM 51.1 °F 46.9 °F 86% 29.93 in 10.0 mi Calm Calm - N/A   Clear
2:54 AM 50.0 °F 46.9 °F 89% 29.96 in 10.0 mi Calm Calm - N/A   Clear
3:54 AM 48.0 °F 45.0 °F 89% 29.97 in 10.0 mi Calm Calm - N/A   Clear
4:54 AM 48.9 °F 46.0 °F 90% 29.97 in 10.0 mi Calm Calm - N/A   Clear
5:54 AM 50.0 °F 46.9 °F 89% 29.99 in 10.0 mi Calm Calm - N/A   Clear
6:54 AM 60.1 °F 52.0 °F 75% 29.94 in 10.0 mi Calm Calm - N/A   Clear
7:54 AM 72.0 °F 50.0 °F 46% 29.92 in 10.0 mi Calm Calm - N/A   Clear
8:54 AM 75.0 °F 46.9 °F 37% 29.94 in 10.0 mi Calm Calm - N/A   Clear
9:54 AM 78.1 °F 48.0 °F 35% 29.92 in 10.0 mi SW 8.1 mph - N/A   Clear
10:54 AM 82.9 °F 44.1 °F 25% 29.91 in 10.0 mi SW 8.1 mph - N/A   Clear
11:54 AM 84.9 °F 43.0 °F 23% 29.90 in 10.0 mi West 8.1 mph - N/A   Clear
12:54 PM 86.0 °F 43.0 °F 22% 29.89 in 10.0 mi WSW 11.5 mph 23.0 mph 0.00 in Rain Light Rain
1:54 PM 86.0 °F 41.0 °F 20% 29.87 in 10.0 mi SW 6.9 mph - 0.00 in   Partly Cloudy
2:54 PM 82.0 °F 45.0 °F 27% 29.88 in 10.0 mi WNW 9.2 mph 23.0 mph N/A   Mostly Cloudy
3:54 PM 82.9 °F 42.1 °F 24% 29.87 in 10.0 mi Variable 5.8 mph - N/A   Partly Cloudy
4:54 PM 82.0 °F 41.0 °F 23% 29.87 in 10.0 mi West 5.8 mph - N/A   Mostly Cloudy
5:54 PM 84.0 °F 43.0 °F 24% 29.86 in 10.0 mi NNE 8.1 mph - N/A   Scattered Clouds
6:54 PM 81.0 °F 46.0 °F 29% 29.83 in 10.0 mi East 5.8 mph - N/A   Scattered Clouds
7:54 PM 75.0 °F 48.0 °F 38% 29.83 in 10.0 mi NE 3.5 mph - N/A   Scattered Clouds
8:54 PM 69.1 °F 48.0 °F 47% 29.87 in 10.0 mi NNE 3.5 mph - N/A   Clear
9:54 PM 64.0 °F 46.9 °F 54% 29.90 in 10.0 mi Calm Calm - N/A   Clear
10:54 PM 62.1 °F 48.0 °F 60% 29.89 in 10.0 mi Calm Calm - N/A   Partly Cloudy
11:54 PM 63.0 °F 48.0 °F 58% 29.90 in 10.0 mi Calm Calm - N/A   Scattered Clouds